Seychelles International Airport
FSIA : now visible

Airfield :











YOU CAN JOIN US ON...

 
LOGIN :

Register | Disclaimer

   EN    FR    IT 

 









Legend :    VFR   Marginal VFR   IFR   Intensive IFR   Very Intensive IFR
Visi :
Ceiling :
>= 8 km
>= 3000ft
5 to 8 km
1000 to 3000 ft
1500m to 5 km
500 to 1000 ft
800 to 1500m
200 to 500 ft
< 800m
< 200 ft
Symbols :   Thunderstorms  Fog  Heavy snow  Heavy precipitations  Wind > 20 kt






- Airport Elevation : 10 ft
- IATA code : SEZ


FSIA - Seychelles International

CURRENT METAR :
  • 271200Z 15010KT 120V230 9999 FEW029 30/22 Q1010 NOSIG

EXPIRED METARs :
  • 271100Z 14010KT 080V200 9999 FEW031 30/23 Q1010 TEMPO 14015G25KT
  • 271000Z 11016G27KT 080V150 9999 FEW031 31/22 Q1011 NOSIG

TAF TAF FSIA
Valid from the 27 at 12:00 until the 28 at 12:00 UTC


271108Z 2712/2812 14015G25KT 9999 FEW027
PROB40
TEMPO 2718/2724 15010KT -SHRA FEW016 BKN018
BECMG 2802/2804 16015KT
FSSS FIR / Africa



MET'MAP, your aeronautical weather chart ! - Copyright ORBIFLY December 2007 - Disclaimer

ORBIFLY MET'MAP TEAM :

Programming & Development : Alexandra Zaïnal
Concept & original design : Baudouin d'Aumeries
Assistance for programming : Marc-Olivier Méhu
Technical & hardware support : Manuel Goepfert

Contact : metmap@orbifly.com




SOURCES & CREDITS :

   NOAA       Earth
Advisory